Date,TemperatureHighF,TemperatureAvgF,TemperatureLowF,DewpointHighF,DewpointAvgF,DewpointLowF,HumidityHigh,HumidityAvg,HumidityLow,PressureMaxIn,PressureMinIn,WindSpeedMaxMPH,WindSpeedAvgMPH,GustSpeedMaxMPH,PrecipitationSumIn
2013-1-1,43.2,40.2,37.0,30.7,27.3,21.7,69,60,49,29.99,29.87,5,2,5,0.00
2013-1-2,40.3,33.7,28.0,28.3,18.7,12.1,68,54,41,30.20,29.95,9,2,9,0.00
2013-1-3,42.4,31.3,25.0,19.9,15.5,11.1,66,52,36,30.22,30.11,6,1,6,0.00
2013-1-4,45.5,35.5,27.9,22.5,19.2,16.5,69,52,36,30.18,30.07,12,3,12,0.00
2013-1-5,46.8,38.1,32.4,32.4,21.1,16.4,79,50,36,30.34,30.11,11,2,11,0.00
2013-1-6,55.6,43.0,31.3,33.9,28.7,25.0,84,59,32,30.16,29.98,9,2,9,0.00
2013-1-7,49.3,40.4,31.5,30.9,26.1,22.9,74,57,39,30.40,30.11,13,2,13,0.00
2013-1-8,56.8,40.8,30.6,34.8,30.1,23.1,80,67,40,30.39,30.32,5,1,5,0.00
2013-1-9,50.9,41.9,33.3,42.2,35.9,29.2,90,80,46,30.35,30.20,8,1,8,0.00
2013-1-10,56.8,47.5,40.1,32.7,29.3,24.0,67,50,31,30.57,30.34,14,2,14,0.00
2013-1-11,45.9,42.0,37.4,42.6,35.6,28.7,99,79,58,30.47,30.06,4,1,4,0.01
2013-1-12,61.9,46.4,41.7,48.7,43.8,41.5,99,92,62,30.14,30.06,3,1,3,0.01
2013-1-13,55.9,48.8,42.8,55.5,48.2,42.3,99,98,97,30.11,29.94,4,1,4,0.04
2013-1-14,59.7,53.3,40.1,59.4,47.7,37.6,99,82,64,30.27,29.91,12,3,12,0.08
2013-1-15,40.1,38.9,35.6,39.3,37.9,33.8,99,96,91,30.31,30.11,4,1,4,0.31
2013-1-16,41.2,37.8,34.7,40.4,36.8,33.2,99,96,93,30.12,29.81,6,1,6,0.41
2013-1-17,42.8,40.7,37.4,41.2,34.3,29.9,98,79,63,30.09,29.93,6,1,6,0.41
2013-1-18,37.9,34.3,30.0,30.2,16.1,3.0,75,49,24,30.46,30.00,11,3,11,0.41
2013-1-19,58.8,27.6,31.6,40.6,-12.7,-99.9,90,41,30,30.38,29.93,8,-303,8,0.41
2013-1-20,60.4,14.4,40.8,29.4,-66.6,-99.9,55,8,21,30.05,29.79,14,-712,14,0.41
2013-1-21,47.3,20.4,30.4,28.7,-35.7,-99.9,63,26,38,30.06,29.75,14,-463,14,0.41
2013-1-22,29.8,16.2,16.9,11.0,-27.5,-99.9,45,22,22,30.25,29.89,13,-211,13,0.41
2013-1-23,27.7,19.1,13.1,4.7,-10.5,-99.9,53,31,21,30.31,30.09,11,-53,11,22.18
2013-1-24,27.9,16.9,16.9,13.9,-20.1,-99.9,78,35,24,30.47,30.05,13,-213,13,22.18
2013-1-25,23.9,19.2,16.9,14.7,-2.8,-99.9,76,45,26,30.47,30.03,7,-46,7,22.18
2013-1-26,37.2,7.9,22.5,21.1,-67.9,-99.9,73,17,49,30.40,30.04,8,-726,8,22.18
2013-1-27,41.0,5.8,30.4,20.5,-80.9,-99.9,57,8,41,30.56,30.39,4,-837,4,22.18
2013-1-28,32.2,4.5,32.0,28.5,-82.3,-99.9,86,11,65,30.46,30.32,2,-858,2,45.37